Date String (YYYY-MM-DD hh:mm:ss) UTC,Instrument flags,Ambient pressure (hPa),Sample flow (lpm),Bypass flow (lpm),Sample temperature (°C),Ambient temperature (°C),ASC tube jacket temperature (°C),LED temperature (°C),Box temperature (°C),Sample RH (%),Span deviation,Mass concentration (μg/m³),Mass concentration (μg/m³),Mass concentration (μg/m³)
DateTimeUTC,F1_M11,P_M11,Q1_M11,Q2_M11,T1_M11,T2_M11,T3_M11,T4_M11,T5_M11,U1_M11,ZSPAN_M11,X0_M11,X2_M11,X1_M11
2023-02-19 22:00:00,,0816.9,5.00,0.00,22.0,20.9,00.0,30.8,23.7,09.8,0000.0,0004.03,0001.75,0001.12
2023-02-19 22:01:00,,0816.9,4.99,0.00,22.0,20.7,00.0,30.8,23.7,09.8,0000.0,0004.09,0001.78,0001.13
2023-02-19 22:02:00,,0817.0,4.99,0.00,22.0,20.7,00.0,30.8,23.7,09.7,0000.0,0004.17,0001.82,0001.14
2023-02-19 22:03:00,,0817.1,4.99,0.00,22.0,20.7,00.0,30.8,23.7,09.4,0000.0,0004.32,0001.80,0001.14
2023-02-19 22:04:00,,0817.0,5.00,0.00,22.0,20.6,00.0,30.8,23.7,09.6,0000.0,0004.81,0001.80,0001.13
2023-02-19 22:05:00,,0817.1,5.00,0.00,22.0,20.5,00.0,30.8,23.7,09.8,0000.0,0004.80,0001.76,0001.12
2023-02-19 22:06:00,,0817.0,5.01,0.00,21.9,20.4,00.0,30.8,23.6,09.6,0000.0,0004.38,0001.73,0001.12
2023-02-19 22:07:00,,0817.0,5.00,0.00,21.9,20.4,00.0,30.8,23.6,09.9,0000.0,0004.48,0001.81,0001.14
2023-02-19 22:08:00,,0816.9,5.00,0.00,21.9,20.4,00.0,30.8,23.6,09.8,0000.0,0004.76,0001.83,0001.15
2023-02-19 22:09:00,,0816.7,5.01,0.00,21.9,20.3,00.0,30.8,23.6,09.6,0000.0,0004.91,0001.84,0001.15
2023-02-19 22:10:00,,0817.0,5.00,0.00,21.9,20.3,00.0,30.8,23.5,09.3,0000.0,0005.22,0001.91,0001.14
2023-02-19 22:11:00,,0816.8,5.01,0.00,21.9,20.2,00.0,30.8,23.5,09.2,0000.0,0005.31,0001.95,0001.15
2023-02-19 22:12:00,,0816.9,5.01,0.00,21.8,20.2,00.0,30.8,23.5,09.4,0000.0,0005.29,0001.95,0001.14
2023-02-19 22:13:00,,0817.0,5.00,0.00,21.8,20.1,00.0,30.8,23.5,09.5,0000.0,0006.08,0001.90,0001.14
2023-02-19 22:14:00,,0816.8,5.01,0.00,21.8,20.2,00.0,30.8,23.5,09.5,0000.0,0006.17,0001.92,0001.15
2023-02-19 22:15:00,,0816.8,5.00,0.00,21.8,20.2,00.0,30.8,23.5,09.5,0000.0,0005.71,0001.94,0001.17
2023-02-19 22:16:00,,0816.7,5.00,0.00,21.8,20.2,00.0,30.7,23.4,09.6,0000.0,0005.73,0001.98,0001.18
2023-02-19 22:17:00,,0816.7,5.00,0.00,21.8,20.2,00.0,30.7,23.4,09.5,0000.0,0005.65,0001.99,0001.18
2023-02-19 22:18:00,,0816.6,5.00,0.00,21.8,20.1,00.0,30.7,23.4,09.4,0000.0,0004.98,0001.94,0001.18
2023-02-19 22:19:00,,0816.6,5.02,0.00,21.8,20.5,00.0,30.7,23.5,09.4,0000.0,0004.60,0001.90,0001.18
2023-02-19 22:20:00,,0816.6,4.98,0.00,21.9,21.5,00.0,30.6,23.8,09.3,0000.0,0004.53,0001.91,0001.19
2023-02-19 22:21:00,,0816.4,5.00,0.00,22.0,22.6,00.0,30.6,24.1,09.3,0000.0,0004.44,0001.89,0001.20
2023-02-19 22:22:00,,0816.5,5.02,0.00,22.1,22.7,00.0,30.7,24.2,09.1,0000.0,0004.41,0001.89,0001.19
2023-02-19 22:23:00,,0816.5,5.01,0.00,22.2,22.2,00.0,30.8,24.1,09.2,0000.0,0004.31,0001.84,0001.18
2023-02-19 22:24:00,,0816.3,4.99,0.00,22.2,21.8,00.0,30.8,24.0,09.2,0000.0,0004.39,0001.85,0001.17
2023-02-19 22:25:00,,0816.5,5.01,0.00,22.1,21.4,00.0,30.9,24.0,09.0,0000.0,0004.67,0001.85,0001.16
2023-02-19 22:26:00,,0816.5,5.00,0.00,22.1,21.2,00.0,30.9,23.9,09.2,0000.0,0004.56,0001.83,0001.15
2023-02-19 22:27:00,,0816.5,5.00,0.00,22.1,21.0,00.0,30.9,23.9,09.2,0000.0,0005.42,0001.86,0001.14
2023-02-19 22:28:00,,0816.4,4.99,0.00,22.1,20.8,00.0,30.9,23.9,09.2,0000.0,0005.75,0001.87,0001.13
2023-02-19 22:29:00,,0816.6,5.01,0.00,22.1,20.8,00.0,30.9,23.8,09.1,0000.0,0005.84,0001.86,0001.13
2023-02-19 22:30:00,,0816.6,5.01,0.00,22.1,20.7,00.0,30.9,23.8,09.2,0000.0,0006.07,0001.89,0001.12
2023-02-19 22:31:00,,0816.5,5.00,0.00,22.1,20.5,00.0,30.9,23.8,09.0,0000.0,0006.15,0001.87,0001.10
2023-02-19 22:32:00,,0816.5,5.01,0.00,22.1,20.5,00.0,30.9,23.7,08.9,0000.0,0006.87,0001.86,0001.08
2023-02-19 22:33:00,,0816.5,5.00,0.00,22.0,20.4,00.0,30.9,23.7,09.0,0000.0,0007.54,0001.92,0001.08
2023-02-19 22:34:00,,0816.5,5.00,0.00,22.0,20.4,00.0,30.9,23.7,09.3,0000.0,0007.60,0001.94,0001.08
2023-02-19 22:35:00,,0816.5,4.99,0.00,22.0,20.3,00.0,30.9,23.6,08.9,0000.0,0007.09,0001.98,0001.08
2023-02-19 22:36:00,,0816.5,4.99,0.00,22.0,20.3,00.0,30.9,23.6,08.9,0000.0,0006.55,0001.97,0001.08
2023-02-19 22:37:00,,0816.7,5.00,0.00,21.9,20.2,00.0,30.9,23.6,09.1,0000.0,0006.59,0001.96,0001.07
2023-02-19 22:38:00,,0816.6,5.01,0.00,21.9,20.2,00.0,30.9,23.6,08.9,0000.0,0006.16,0001.92,0001.06
2023-02-19 22:39:00,,0816.7,5.00,0.00,21.9,20.2,00.0,30.9,23.6,09.0,0000.0,0006.04,0001.91,0001.05
2023-02-19 22:40:00,,0816.6,4.99,0.00,21.9,20.1,00.0,30.9,23.5,08.9,0000.0,0006.07,0001.94,0001.05
2023-02-19 22:41:00,,0816.7,5.00,0.00,21.9,20.2,00.0,30.8,23.5,09.0,0000.0,0006.07,0001.94,0001.06
2023-02-19 22:42:00,,0816.6,5.01,0.00,21.8,20.2,00.0,30.8,23.5,09.4,0000.0,0006.24,0001.96,0001.07
2023-02-19 22:43:00,,0816.9,4.99,0.00,21.8,20.1,00.0,30.8,23.4,09.4,0000.0,0005.67,0001.98,0001.07
2023-02-19 22:44:00,,0816.9,5.00,0.00,21.8,20.2,00.0,30.8,23.5,09.2,0000.0,0005.08,0001.90,0001.06
2023-02-19 22:45:00,,0816.9,4.96,0.00,21.8,20.2,00.0,30.8,23.5,09.0,0000.0,0005.11,0001.87,0001.06
2023-02-19 22:46:00,,0816.6,5.00,0.00,21.8,20.2,00.0,30.8,23.4,09.2,0000.0,0005.54,0001.82,0001.06
2023-02-19 22:47:00,,0816.4,5.03,0.00,21.8,20.8,00.0,30.7,23.6,09.2,0000.0,0006.20,0001.84,0001.06
2023-02-19 22:48:00,,0816.4,5.01,0.00,21.9,22.1,00.0,30.7,23.9,09.3,0000.0,0006.32,0001.82,0001.07
2023-02-19 22:49:00,,0816.7,5.04,0.00,22.1,23.1,00.0,30.7,24.2,09.2,0000.0,0006.01,0001.88,0001.08
2023-02-19 22:50:00,,0816.9,5.00,0.00,22.2,22.9,00.0,30.8,24.2,09.0,0000.0,0006.06,0001.93,0001.09
2023-02-19 22:51:00,,0816.5,4.97,0.00,22.2,22.4,00.0,30.9,24.2,08.8,0000.0,0006.57,0002.01,0001.10
2023-02-19 22:52:00,,0816.5,4.99,0.00,22.2,22.0,00.0,30.9,24.1,08.4,0000.0,0006.52,0002.04,0001.09
2023-02-19 22:53:00,,0816.5,5.00,0.00,22.2,21.7,00.0,31.0,24.1,08.7,0000.0,0006.35,0002.07,0001.08
2023-02-19 22:54:00,,0816.4,4.99,0.00,22.2,21.5,00.0,31.0,24.1,08.9,0000.0,0006.19,0002.07,0001.07
2023-02-19 22:55:00,,0816.5,4.99,0.00,22.2,21.3,00.0,31.0,24.0,08.9,0000.0,0006.11,0002.15,0001.08
2023-02-19 22:56:00,,0816.4,4.99,0.00,22.2,21.1,00.0,31.0,24.0,09.1,0000.0,0006.79,0002.23,0001.10
2023-02-19 22:57:00,,0816.6,4.99,0.00,22.2,21.0,00.0,31.0,23.9,09.0,0000.0,0006.35,0002.22,0001.11
2023-02-19 22:58:00,,0816.5,4.99,0.00,22.2,20.9,00.0,31.0,24.0,09.0,0000.0,0005.69,0002.21,0001.11
2023-02-19 22:59:00,,0816.3,4.99,0.00,22.2,20.8,00.0,31.0,24.0,09.0,0000.0,0005.64,0002.30,0001.12
